Regional Weather Roundup
Issued by NWS

Home | Current Version | Previous Version | Text Only | Print | Product List | Glossary Off
Versions: 1 2 3 4 5 6 7 8 9 10 11 12 13 14 15 16 17 18 19 20 21 22 23 24 25 26 27 28 29 30 31 32 33 34 35 36 37 38 39 40 41 42 43 44 45 46 47 48 49 50

000
ASUS43 KLSX 301157
RWRMO

WEATHER SUMMARY FOR MISSOURI
NATIONAL WEATHER SERVICE SPRINGFIELD MO
700 AM CDT SUN AUG 30 2015

NOTE: "FAIR" INDICATES FEW OR NO CLOUDS BELOW 12,000 FEET WITH NO
       SIGNIFICANT WEATHER AND/OR OBSTRUCTIONS TO VISIBILITY.
       CURRENT SKY AND/OR WEATHER CONDITIONS ARE NOT AVAILABLE FOR
       CHILLICOTHE AND FARMINGTON.

MOZ001>031-035>038-043-044-053-054-301300-
...NORTHERN AND WESTERN MISSOURI...

CITY           SKY/WX    TMP DP  RH WIND       PRES   REMARKS
KANSAS CTY INT CLOUDY    66  61  84 E6        30.02S HAZE
6HR MIN TEMP:  63; 6HR MAX TEMP:  67;

KANSAS C DTWN  CLOUDY    70  66  88 E6        30.01S FOG
LEE`S SUMMIT   FOG       68  67  96 NE5       30.03R VSB 1/4
6HR MIN TEMP:  67; 6HR MAX TEMP:  69;

ST JOSEPH      CLOUDY    62  61  96 CALM      30.03S
6HR MIN TEMP:  59; 6HR MAX TEMP:  64;

CHILLICOTHE      N/A     67  66  97 CALM      30.04R
6HR MIN TEMP:  66; 6HR MAX TEMP:  69;


$$
MOZ066>068-077>081-088>096-101>105-301300-
...SOUTHWEST MISSOURI...

CITY           SKY/WX    TMP DP  RH WIND       PRES   REMARKS
SPRINGFIELD    MOCLDY    70  66  87 SE12      30.01R
6HR MIN TEMP:  68; 6HR MAX TEMP:  71;

JOPLIN         FOG       68  68 100 E3        30.00R VSB 1/4
6HR MIN TEMP:  66; 6HR MAX TEMP:  72;


$$
MOZ032>034-039>042-045>050-055>058-069>072-301300-
...CENTRAL MISSOURI...

CITY           SKY/WX    TMP DP  RH WIND       PRES   REMARKS
COLUMBIA       MOCLDY    68  68 100 E5        30.02R FOG
JEFFERSON CITY FOG       66  65  96 SE6       30.02R VSB 1/2
6HR MIN TEMP:  66; 6HR MAX TEMP:  72;

ROLLA          PTCLDY    66  65  96 SE6       30.02R
6HR MIN TEMP:  65; 6HR MAX TEMP:  67;

SEDALIA        FOG       68  66  93 NE3       30.02R VSB<1/4
6HR MIN TEMP:  66; 6HR MAX TEMP:  70;


$$
MOZ051-052-059>065-301300-
...EAST CENTRAL MISSOURI...

CITY           SKY/WX    TMP DP  RH WIND       PRES   REMARKS
ST LOUIS INTL  CLOUDY    73  65  75 SW3       30.04R
6HR MIN TEMP:  73; 6HR MAX TEMP:  76;

ST CHARLES     PTCLDY    67  67 100 CALM      30.02R FOG

$$
MOZ072>076-082>087-097>100-106>115-301300-
...SOUTH CENTRAL AND SOUTHEAST MISSOURI...

CITY           SKY/WX    TMP DP  RH WIND       PRES   REMARKS
CAPE GIRARDEAU CLOUDY    71  69  93 CALM      30.04R
6HR MIN TEMP:  70; 6HR MAX TEMP:  75; 6HR PCP: TRACE;

POPLAR BLUFF   PTCLDY    66  64  93 N3        30.02R
6HR MIN TEMP:  65; 6HR MAX TEMP:  73;

WEST PLAINS    CLOUDY    68  65  90 W3        30.07R
6HR MIN TEMP:  66; 6HR MAX TEMP:  69; 6HR PCP: TRACE;


$$



USA.gov is the U.S. government's official web portal to all federal, state and local government web resources and services.